sat.trackr.live / text

‹ back to catalog

STARLINK-37356

NORAD 68704 · 2026-081F

PAYLOAD ACTIVE UNKNOWN

§ Identity

Operator
Country
US
Launch date
2026-04-14
Launch site
AFETR
Launch vehicle
Mass (kg)
RCS (m²)

Purposes: comms

External: N2YO · Heavens-Above · Gunter

§ Orbital elements

Epoch: 2026-09-20T03:55:37.975872Z

Period
93.85 min
Inclination
53.1569°
Eccentricity
0.0003476
Mean motion
15.34388437 rev/d
Perigee alt
460.4 km
Apogee alt
465.1 km
Semi-major
6,840.9 km
B*
5.0938e-4
RAAN
207.5226°
Arg perigee
45.6497°
Mean anomaly
314.4790°
Rev number
2,456

§ Raw data

STARLINK-373561 68704U 26081F   26263.16363398  .00016867  00000+0  50938-3 0  99952 68704  53.1569 207.5226 0003476  45.6497 314.4790 15.34388437 24566

JSON: /api/v1/satellites/68704 · /tle

For live sub-satellite position, see the globe view (requires WebGL).

§ Visibility from observer

Set your observer location to see the next 7 days of passes ≥ 10°. The values pass through the URL so the page stays shareable.

No JS? Fill the form by hand. The geolocation button needs JavaScript.